Weather in Sendai

Japan     38°12′29″N   140°53′59″E
temp.,
°C
wind,
m/s
gust,
m/s
humid.,
%
clouds,
%
prec.,
mm/h
press.,
hPa
HPBL,
m
20 september, mon
mon2000:00+20wsw117478 0.0 1016122
03:00+19nw1180100 0.0 101781
06:00+18nnw348145 0.0 1018192
09:00+21n226525 0.0 1018462
12:00+23e336122 0.0 1018706
15:00+22se4468100 0.0 1018529
18:00+21sse347355 0.0 1019497
21:00+20se22754 0.0 1020246
21 september, tue
tue2100:00+20sse34755 0.0 1019355
03:00+19s24780 0.0 1018362
06:00+18sw22842 0.0 1019245
09:00+20s35720 0.0 1018620
12:00+22se46700 0.0 1017714
15:00+22sse55696 0.0 1015767
18:00+21sse46760 0.0 1016711
21:00+21sse57790 0.0 1016630
22 september, wed
wed2200:00+20s35830 0.0 1014285
03:00+19wsw22861 0.0 1013130
06:00+18nw22850 0.0 1013119
09:00+22ssw24660 0.0 1013407
12:00+23se436785 0.0 1011352
15:00+24se357677 0.1 1009369
18:00+22se2292100 0.6 1009190
21:00+22n3591100 0.6 1011218
23 september, thu
thu2300:00+22nw2284100 0.1 101069
03:00+21w0187100 0.9 101156
06:00+21n00890 0.3 101251
09:00+23sse11760 0.3 1012367
12:00+25se32706 0.0 1011561
15:00+25se447279 0.0 1010309
18:00+22s34854 0.0 1012214
21:00+22s24875 0.0 1013153
24 september, fri
fri2400:00+22wsw1187100 0.6 101271
03:00+21n2380100 0.8 1012105
06:00+21nw2276100 0.0 101373
09:00+25w2461100 0.0 1013538
12:00+26s2453100 0.0 10121155
15:00+27wsw3549100 0.0 10121186
18:00+24wnw36572 0.0 1013560
21:00+22nw23671 0.0 1014146